KB9ZI Weather Reports


Display with metric or nautical units.
time (UTC)temp
F
wind
direction
speed
MPH
gust
MPH
rain 1hr
in
rain 24hr
in
rain mn
in
humidity
%
barometer
mb
20210625040955 70 321 0.0 0.0 0.00 0.00 0.00 59 1012.0
20210625040452 70 321 0.0 0.0 0.00 0.00 0.00 59 1011.8
20210625035952 70 321 0.0 0.0 0.00 0.00 0.00 60 1011.7
20210625035449 71 321 0.0 0.0 0.00 0.00 0.00 60 1011.8
20210625034947 71 321 0.0 0.0 0.00 0.00 0.00 59 1011.7
20210625034446 71 321 0.0 0.0 0.00 0.00 0.00 58 1011.7
20210625033943 72 321 0.0 0.0 0.00 0.00 0.00 56 1011.5
20210625033441 72 321 0.0 0.0 0.00 0.00 0.00 56 1011.3
20210625032948 72 321 0.0 0.0 0.00 0.00 0.00 56 1011.1
20210625032940 73 321 0.0 0.0 0.00 0.00 0.00 56 1011.1
20210625032445 73 321 0.0 0.0 0.00 0.00 0.00 55 1010.9
20210625031940 73 321 0.0 0.0 0.00 0.00 0.00 55 1010.9
20210625031439 73 321 0.0 0.0 0.00 0.00 0.00 55 1010.9
20210625030939 74 321 0.0 0.0 0.00 0.00 0.00 55 1010.7
20210625030438 74 321 0.0 0.0 0.00 0.00 0.00 54 1010.5
20210625030146 74 321 0.0 1.0 0.00 0.00 0.00 54 1010.5
20210625025924 74 321 0.0 1.0 0.00 0.00 0.00 54 1010.1
20210625025629 75 321 0.0 1.0 0.00 0.00 0.00 54 1010.1
20210625025436 75 321 0.0 0.0 0.00 0.00 0.00 53 1010.2
20210625025047 75 321 0.0 4.0 0.00 0.00 0.00 53 1010.1
20210625024900 76 322 0.0 4.0 0.00 0.00 0.00 52 1010.1
20210625020918 77 317 0.0 0.0 0.00 0.00 0.00 52 1010.2
20210625020418 77 317 0.0 0.0 0.00 0.00 0.00 51 1010.5
20210625015919 78 317 0.0 0.0 0.00 0.00 0.00 51 1010.4
20210625015416 78 317 0.0 1.0 0.00 0.00 0.00 51 1010.3
20210625014920 78 317 0.0 2.0 0.00 0.00 0.00 51 1010.3
20210625014412 78 317 0.0 2.0 0.00 0.00 0.00 51 1010.2
20210625013911 78 317 0.0 1.0 0.00 0.00 0.00 51 1010.2
20210625013408 79 317 0.0 2.0 0.00 0.00 0.00 50 1010.3
20210625012907 79 316 0.0 2.0 0.00 0.00 0.00 51 1010.2
20210625012406 79 318 0.0 2.0 0.00 0.00 0.00 51 1010.2
20210625011907 79 318 0.0 2.0 0.00 0.00 0.00 52 1010.1
20210625011404 79 319 0.0 2.0 0.00 0.00 0.00 52 1010.1
20210625010904 79 320 0.0 6.0 0.00 0.00 0.00 51 1010.1
20210625010404 79 323 0.0 6.0 0.00 0.00 0.00 53 1010.1
20210625005904 80 325 0.0 5.0 0.00 0.00 0.00 53 1010.1
20210625005409 80 314 0.0 4.0 0.00 0.00 0.00 53 1010.2
20210625004901 80 319 0.0 2.0 0.00 0.00 0.00 54 1010.2
20210625004400 80 319 0.0 1.0 0.00 0.00 0.00 54 1010.1
20210625003900 80 318 0.0 5.0 0.00 0.00 0.00 54 1010.1
20210625003402 80 318 0.0 5.0 0.00 0.00 0.00 53 1010.2
20210625002858 80 311 0.0 6.0 0.00 0.00 0.00 54 1010.2
20210625002400 80 310 0.0 7.0 0.00 0.00 0.00 54 1010.2
20210625001859 80 304 0.0 7.0 0.00 0.00 0.00 53 1010.2
20210625001355 80 326 0.0 6.0 0.00 0.00 0.00 52 1010.1
20210625000852 80 310 0.0 6.0 0.00 0.00 0.00 53 1010.2
20210625000353 80 289 0.0 7.0 0.00 0.00 0.00 53 1010.1
20210624235850 80 259 0.0 10.0 0.00 0.00 0.00 52 1010.1
20210624235351 80 327 0.0 10.0 0.00 0.00 0.00 52 1010.2
20210624234850 80 321 0.0 9.0 0.00 0.00 0.00 53 1010.2
20210624234348 80 321 0.0 10.0 0.00 0.00 0.00 52 1010.2
20210624233903 80 300 0.0 10.0 0.00 0.00 0.00 53 1010.1
20210624233347 80 339 0.0 9.0 0.00 0.00 0.00 54 1010.1
20210624232842 80 302 0.0 10.0 0.00 0.00 0.00 54 1010.1
20210624232340 81 355 0.0 10.0 0.00 0.00 0.00 55 1010.1
20210624231840 81 295 0.0 9.0 0.00 0.00 0.00 55 1009.9
20210624231340 81 309 0.0 10.0 0.00 0.00 0.00 55 1009.9
20210624230840 81 319 0.0 11.0 0.00 0.00 0.00 54 1009.9
20210624230338 81 288 0.0 11.0 0.00 0.00 0.00 55 1009.9
20210624225839 82 302 0.0 9.0 0.00 0.00 0.00 56 1009.9
20210624225336 82 307 0.0 9.0 0.00 0.00 0.00 57 1009.9
20210624224836 82 262 0.0 10.0 0.00 0.00 0.00 56 1009.8
20210624224335 82 306 0.0 10.0 0.00 0.00 0.00 55 1009.8
20210624223833 82 315 0.0 11.0 0.00 0.00 0.00 55 1009.8
20210624223333 82 307 0.0 11.0 0.00 0.00 0.00 55 1009.8
20210624222832 83 321 0.0 9.0 0.00 0.00 0.00 57 1009.8
20210624222333 83 318 0.0 9.0 0.00 0.00 0.00 55 1009.8
20210624221835 83 55 0.0 8.0 0.00 0.00 0.00 55 1009.7
20210624221332 83 335 0.0 8.0 0.00 0.00 0.00 56 1009.7
20210624220832 83 321 0.0 8.0 0.00 0.00 0.00 55 1009.7
20210624220333 83 279 0.0 8.0 0.00 0.00 0.00 55 1009.7
20210624215836 83 319 0.0 8.0 0.00 0.00 0.00 55 1009.7
20210624215329 83 275 0.0 12.0 0.00 0.00 0.00 57 1009.7
20210624214830 83 318 0.0 12.0 0.00 0.00 0.00 57 1009.6
20210624214329 83 269 0.0 9.0 0.00 0.00 0.00 57 1009.6
20210624213826 84 322 0.0 7.0 0.00 0.00 0.00 58 1009.5
20210624213324 84 320 0.0 9.0 0.00 0.00 0.00 58 1009.4
20210624212827 84 280 0.0 9.0 0.00 0.00 0.00 58 1009.3
20210624212322 84 355 0.0 11.0 0.00 0.00 0.00 59 1009.2
20210624211824 83 282 0.0 11.0 0.00 0.00 0.00 58 1009.2
20210624211321 83 329 0.0 12.0 0.00 0.00 0.00 60 1009.2
20210624210827 83 329 0.0 12.0 0.00 0.00 0.00 60 1009.3
20210624210357 84 326 0.0 8.0 0.00 0.00 0.00 60 1009.3
20210624205824 84 272 0.0 0.0 0.00 0.00 0.00 59 1009.3
20210624205345 85 284 0.0 9.0 0.00 0.00 0.00 58 1009.3
20210624204847 85 308 0.0 8.0 0.00 0.00 0.00 57 1009.3
20210624204400 85 280 0.0 10.0 0.00 0.00 0.00 59 1009.2
20210624203900 85 290 0.0 10.0 0.00 0.00 0.00 58 1009.2
20210624203339 85 319 0.0 12.0 0.00 0.00 0.00 59 1009.3
20210624203106 85 306 0.0 12.0 0.00 0.00 0.00 59 1009.3
20210624202840 85 293 0.0 12.0 0.00 0.00 0.00 59 1009.3
20210624202603 85 9 0.0 12.0 0.00 0.00 0.00 58 1009.3
20210624202356 86 355 0.0 10.0 0.00 0.00 0.00 58 1009.3
20210624201907 86 326 0.0 10.0 0.00 0.00 0.00 59 1009.3
20210624201338 87 341 0.0 9.0 0.00 0.00 0.00 58 1009.4
20210624201101 87 322 0.0 9.0 0.00 0.00 0.00 57 1009.4
20210624200836 87 277 0.0 11.0 0.00 0.00 0.00 56 1009.5
20210624200613 87 240 0.0 11.0 0.00 0.00 0.00 59 1009.5
20210624200336 86 330 0.0 11.0 0.00 0.00 0.00 60 1009.5
20210624200105 86 269 0.0 11.0 0.00 0.00 0.00 59 1009.5
20210624195857 86 308 0.0 10.0 0.00 0.00 0.00 61 1009.5
20210624195334 87 323 0.0 8.0 0.00 0.00 0.00 59 1009.5
20210624194835 87 318 0.0 8.0 0.00 0.00 0.00 57 1009.6
20210624194558 89 300 0.0 7.0 0.00 0.00 0.00 57 1009.5
20210624194334 88 306 0.0 8.0 0.00 0.00 0.00 59 1009.5
20210624194058 87 329 0.0 9.0 0.00 0.00 0.00 60 1009.5
20210624193851 86 24 0.0 9.0 0.00 0.00 0.00 61 1009.5
20210624193343 86 326 0.0 9.0 0.00 0.00 0.00 61 1009.6
20210624193245 86 300 0.0 8.0 0.00 0.00 0.00 62 1009.6
20210624193154 86 323 0.0 10.0 0.00 0.00 0.00 61 1009.6
20210624192804 85 263 0.0 10.0 0.00 0.00 0.00 63 1009.5
20210624192706 85 275 0.0 10.0 0.00 0.00 0.00 61 1009.4
20210624192621 86 321 0.0 10.0 0.00 0.00 0.00 61 1009.4
20210624192332 85 277 0.0 10.0 0.00 0.00 0.00 62 1009.5
20210624192032 85 322 0.0 10.0 0.00 0.00 0.00 64 1009.5
20210624191940 86 296 0.0 10.0 0.00 0.00 0.00 63 1009.4
20210624191855 86 304 0.0 10.0 0.00 0.00 0.00 61 1009.4
20210624191803 87 304 0.0 9.0 0.00 0.00 0.00 62 1009.4
20210624191708 87 320 0.0 9.0 0.00 0.00 0.00 61 1009.4
20210624191610 88 306 0.0 8.0 0.00 0.00 0.00 61 1009.4
20210624191521 87 288 0.0 9.0 0.00 0.00 0.00 62 1009.5
20210624191227 87 259 0.0 11.0 0.00 0.00 0.00 61 1009.5
20210624191137 87 290 0.0 11.0 0.00 0.00 0.00 63 1009.5
20210624191047 86 322 0.0 11.0 0.00 0.00 0.00 63 1009.4
20210624190955 86 290 0.0 11.0 0.00 0.00 0.00 63 1009.4
20210624190900 86 311 0.0 8.0 0.00 0.00 0.00 64 1009.4
20210624190809 86 355 0.0 8.0 0.00 0.00 0.00 64 1009.3
20210624190722 86 30 0.0 8.0 0.00 0.00 0.00 64 1009.2
20210624190415 85 321 0.0 8.0 0.00 0.00 0.00 66 1009.4
20210624190124 86 335 0.0 7.0 0.00 0.00 0.00 65 1009.3
20210624185721 87 304 0.0 7.0 0.00 0.00 0.00 65 1009.3
20210624185335 85 281 0.0 10.0 0.00 0.00 0.00 65 1009.3
20210624185244 86 0 0.0 10.0 0.00 0.00 0.00 65 1009.2
20210624185153 86 340 0.0 10.0 0.00 0.00 0.00 65 1009.1
20210624185000 87 273 0.0 9.0 0.00 0.00 0.00 67 1009.1
20210624184908 86 294 0.0 9.0 0.00 0.00 0.00 67 1009.1
20210624184818 86 254 0.0 8.0 0.00 0.00 0.00 66 1009.1
20210624161755 81 298 0.0 4.0 0.00 0.00 0.00 76 1008.5
20210624161253 81 284 0.0 4.0 0.00 0.00 0.00 76 1008.5
20210624160753 81 290 0.0 4.0 0.00 0.00 0.00 76 1008.4
20210624160504 81 290 0.0 7.0 0.00 0.00 0.00 75 1008.4
20210624160254 81 311 0.0 7.0 0.00 0.00 0.00 75 1008.2
20210624155753 81 327 0.0 7.0 0.00 0.00 0.00 75 1008.4
20210624155253 81 260 0.0 8.0 0.00 0.00 0.00 76 1008.2
20210624154958 81 277 0.0 8.0 0.00 0.00 0.00 76 1008.2
20210624154753 81 336 0.0 8.0 0.00 0.00 0.00 76 1008.2
20210624154453 81 312 0.0 8.0 0.00 0.00 0.00 76 1008.1
20210624154252 81 264 0.0 7.0 0.00 0.00 0.00 77 1008.0
20210624153946 80 275 0.0 7.0 0.00 0.00 0.00 77 1008.0
20210624153756 80 324 0.0 7.0 0.00 0.00 0.00 77 1008.1
20210624153258 81 329 0.0 7.0 0.00 0.00 0.00 76 1008.1
20210624152752 80 290 0.0 6.0 0.00 0.00 0.00 77 1008.1
20210624152445 80 312 0.0 6.0 0.00 0.00 0.00 77 1008.1
20210624152253 81 341 0.0 6.0 0.00 0.00 0.00 77 1008.1
20210624151946 80 269 0.0 6.0 0.00 0.00 0.00 77 1008.1
20210624151753 80 277 0.0 9.0 0.00 0.00 0.00 77 1008.0
20210624151446 81 280 0.0 9.0 0.00 0.00 0.00 76 1008.0
20210624151253 81 257 0.0 9.0 0.00 0.00 0.00 76 1008.1
20210624150755 81 265 0.0 8.0 0.00 0.00 0.00 75 1008.1
20210624150253 81 229 0.0 6.0 0.00 0.00 0.00 76 1008.0
20210624145753 81 254 0.0 8.0 0.00 0.00 0.00 76 1008.0
20210624145446 81 238 0.0 8.0 0.00 0.00 0.00 76 1007.9
20210624145253 80 265 0.0 8.0 0.00 0.00 0.00 76 1007.8
20210624144752 81 273 0.0 8.0 0.00 0.00 0.00 75 1007.8
20210624144256 81 229 0.0 8.0 0.00 0.00 0.00 76 1007.7
20210624143752 81 291 0.0 8.0 0.00 0.00 0.00 76 1007.7
20210624143441 81 273 0.0 8.0 0.00 0.00 0.00 76 1007.8
20210624143253 81 271 0.0 8.0 0.00 0.00 0.00 76 1007.7
20210624142940 81 273 0.0 8.0 0.00 0.00 0.00 77 1007.6
20210624142753 80 254 0.0 8.0 0.00 0.00 0.00 77 1007.6
20210624142252 80 266 0.0 8.0 0.00 0.00 0.00 77 1007.6
20210624141938 80 292 0.0 8.0 0.00 0.00 0.00 77 1007.5
20210624141754 80 267 0.0 9.0 0.00 0.00 0.00 77 1007.5
20210624141432 80 257 0.0 10.0 0.00 0.00 0.00 76 1007.4
20210624141253 80 245 0.0 10.0 0.00 0.00 0.00 76 1007.4
20210624140753 80 278 0.0 10.0 0.00 0.00 0.00 76 1007.5
20210624140436 80 186 0.0 8.0 0.00 0.00 0.00 77 1007.5
20210624140253 80 272 0.0 10.0 0.00 0.00 0.00 78 1007.4
20210624135754 79 227 0.0 10.0 0.00 0.00 0.00 79 1007.3
20210624135257 79 227 0.0 8.0 0.00 0.00 0.00 79 1007.4
20210624134751 79 262 0.0 8.0 0.00 0.00 0.00 80 1007.2
20210624134248 79 259 0.0 8.0 0.00 0.00 0.00 80 1007.2
20210624133747 79 244 0.0 8.0 0.00 0.00 0.00 80 1007.3
20210624133431 79 241 0.0 8.0 0.00 0.00 0.00 80 1007.2
20210624133245 79 261 0.0 8.0 0.00 0.00 0.00 81 1007.2
20210624132745 79 204 0.0 8.0 0.00 0.00 0.00 81 1007.0
20210624132431 79 269 0.0 8.0 0.00 0.00 0.00 81 1007.0
20210624132240 78 213 0.0 8.0 0.00 0.00 0.00 81 1007.1
20210624131743 78 234 0.0 7.0 0.00 0.00 0.00 82 1007.0
20210624131423 78 263 0.0 7.0 0.00 0.00 0.00 82 1007.0
20210624131240 78 164 0.0 7.0 0.00 0.00 0.00 82 1007.0
20210624130806 78 242 0.0 7.0 0.00 0.00 0.00 82 1006.9
20210624130235 78 214 0.0 9.0 0.00 0.00 0.00 82 1006.7
20210624125738 78 291 0.0 9.0 0.00 0.00 0.00 83 1006.6
20210624125232 77 248 0.0 7.0 0.00 0.00 0.00 83 1006.5
20210624124916 77 163 0.0 8.0 0.00 0.00 0.00 83 1006.5
20210624124735 77 180 0.0 8.0 0.00 0.00 0.00 83 1006.4
20210624124420 77 186 0.0 8.0 0.00 0.00 0.00 83 1006.4
20210624124237 77 211 0.0 8.0 0.00 0.00 0.00 83 1006.4
20210624123726 77 236 0.0 8.0 0.00 0.00 0.00 83 1006.2
20210624123225 77 190 0.0 8.0 0.00 0.00 0.00 83 1006.1
20210624122720 77 210 0.0 8.0 0.00 0.00 0.00 83 1005.8
20210624122222 76 168 0.0 10.0 0.00 0.00 0.00 83 1005.7
20210624121719 76 183 0.0 10.0 0.00 0.00 0.00 83 1005.6
20210624121216 76 200 0.0 9.0 0.00 0.00 0.00 83 1005.5
20210624120716 76 184 0.0 9.0 0.00 0.00 0.00 83 1005.3
20210624120400 76 190 0.0 11.0 0.00 0.00 0.00 83 1005.3
20210624120216 76 173 0.0 11.0 0.00 0.00 0.00 83 1005.3
20210624115900 76 180 0.0 12.0 0.00 0.00 0.00 83 1005.3
20210624115712 76 200 0.0 12.0 0.00 0.00 0.00 83 1005.3
20210624115355 76 188 0.0 12.0 0.00 0.00 0.00 84 1005.2
20210624115211 76 165 0.0 12.0 0.00 0.00 0.00 84 1005.1
20210624114856 76 217 0.0 12.0 0.00 0.00 0.00 84 1005.1
20210624114712 76 182 0.0 12.0 0.00 0.00 0.00 84 1005.1
20210624114359 76 160 0.0 13.0 0.00 0.00 0.00 84 1005.1
20210624114212 76 172 0.0 13.0 0.00 0.00 0.00 84 1005.1
20210624113853 76 205 0.0 13.0 0.00 0.00 0.00 84 1005.1
20210624113712 76 196 0.0 13.0 0.00 0.00 0.00 84 1005.1
20210624113355 76 226 0.0 12.0 0.00 0.00 0.00 84 1005.2
20210624113212 76 192 0.0 12.0 0.00 0.00 0.00 84 1005.1
20210624112854 76 178 0.0 12.0 0.00 0.00 0.00 84 1005.1
20210624112711 76 188 0.0 12.0 0.00 0.00 0.00 84 1005.2
20210624112351 76 177 0.0 15.0 0.00 0.00 0.00 84 1005.3
20210624112206 76 191 0.0 15.0 0.00 0.00 0.00 84 1005.3
20210624111849 76 179 0.0 15.0 0.00 0.00 0.00 84 1005.2
20210624111706 76 163 0.0 15.0 0.00 0.00 0.00 84 1005.4
20210624111350 76 170 0.0 12.0 0.00 0.00 0.00 84 1005.3
20210624111209 76 207 0.0 12.0 0.00 0.00 0.00 84 1005.2
20210624110706 76 183 0.0 14.0 0.00 0.00 0.00 83 1005.3
20210624110348 76 198 0.0 14.0 0.00 0.00 0.00 83 1005.3
20210624110205 76 160 0.0 14.0 0.00 0.00 0.00 83 1005.4
20210624105701 76 194 0.0 14.0 0.00 0.00 0.00 83 1005.5
20210624105343 76 195 0.0 14.0 0.00 0.00 0.00 83 1005.5
20210624105200 76 165 0.0 10.0 0.00 0.00 0.00 83 1005.5
20210624104700 76 150 0.0 11.0 0.00 0.00 0.00 83 1005.6
20210624104200 76 214 0.0 11.0 0.00 0.00 0.00 83 1005.7
20210624103842 76 165 0.0 11.0 0.00 0.00 0.00 83 1005.7
20210624103700 76 205 0.0 9.0 0.00 0.00 0.00 82 1005.6
20210624103341 76 191 0.0 12.0 0.00 0.00 0.00 82 1005.6
20210624103152 76 187 0.0 12.0 0.00 0.00 0.00 82 1005.6
20210624102839 76 179 0.0 16.0 0.00 0.00 0.00 82 1005.5
20210624102655 76 173 0.0 16.0 0.00 0.00 0.00 82 1005.5
20210624102335 76 167 0.0 16.0 0.00 0.00 0.00 82 1005.6
20210624102151 76 180 0.0 16.0 0.00 0.00 0.00 82 1005.7
20210624101651 76 213 0.0 15.0 0.00 0.00 0.00 82 1005.7
20210624101150 77 214 0.0 11.0 0.00 0.00 0.00 81 1005.8
20210624100654 77 155 0.0 19.0 0.00 0.00 0.00 81 1005.8
20210624100152 77 213 0.0 19.0 0.00 0.00 0.00 81 1005.8
20210624095646 77 189 0.0 12.0 0.00 0.00 0.00 81 1005.7
20210624095146 77 172 0.0 12.0 0.00 0.00 0.00 80 1005.6
20210624094831 77 203 0.0 20.0 0.00 0.00 0.00 80 1005.6
20210624094648 77 203 0.0 20.0 0.00 0.00 0.00 80 1005.7
20210624094332 77 203 0.0 20.0 0.00 0.00 0.00 80 1005.7
20210624094147 77 212 0.0 20.0 0.00 0.00 0.00 80 1005.7
20210624093830 77 175 0.0 16.0 0.00 0.00 0.00 80 1005.6
20210624093642 78 176 0.0 22.0 0.00 0.00 0.00 80 1005.6
20210624093329 78 178 0.0 22.0 0.00 0.00 0.00 80 1005.4
20210624093143 78 174 0.0 22.0 0.00 0.00 0.00 80 1005.5
20210624092636 78 215 0.0 21.0 0.00 0.00 0.00 80 1005.4
20210624092134 78 205 0.0 21.0 0.00 0.00 0.00 80 1005.2
20210624091824 78 121 0.0 16.0 0.00 0.00 0.00 80 1005.2
20210624091636 78 190 0.0 16.0 0.00 0.00 0.00 80 1005.1
20210624091324 78 169 0.0 19.0 0.00 0.00 0.00 79 1005.0
20210624091132 78 169 0.0 19.0 0.00 0.00 0.00 79 1005.0
20210624090824 78 176 0.0 19.0 0.00 0.00 0.00 79 1005.0
20210624090631 78 232 0.0 19.0 0.00 0.00 0.00 79 1004.9
20210624090324 78 205 0.0 15.0 0.00 0.00 0.00 79 1004.7
20210624090144 78 203 0.0 18.0 0.00 0.00 0.00 79 1004.7
20210624085633 78 290 0.0 20.0 0.00 0.00 0.00 79 1004.9
20210624085133 78 173 0.0 20.0 0.00 0.00 0.00 79 1005.1
20210624084823 78 146 0.0 20.0 0.00 0.00 0.00 79 1005.2
20210624084629 78 164 0.0 20.0 0.00 0.00 0.00 79 1005.3
20210624084321 78 178 0.0 18.0 0.00 0.00 0.00 79 1005.4
20210624084130 78 172 0.0 18.0 0.00 0.00 0.00 79 1005.5
20210624083820 78 184 0.0 18.0 0.00 0.00 0.00 79 1005.5
20210624083632 78 187 0.0 21.0 0.00 0.00 0.00 79 1005.6
20210624083322 78 216 0.0 22.0 0.00 0.00 0.00 79 1005.7
20210624083130 78 211 0.0 22.0 0.00 0.00 0.00 79 1005.7
20210624082819 78 179 0.0 22.0 0.00 0.00 0.00 79 1005.7
20210624082629 78 188 0.0 22.0 0.00 0.00 0.00 79 1005.6
20210624082129 78 189 0.0 21.0 0.00 0.00 0.00 79 1005.6
20210624081819 78 238 0.0 23.0 0.00 0.00 0.00 79 1005.7
20210624081623 78 207 0.0 23.0 0.00 0.00 0.00 79 1005.7
20210624081317 78 175 0.0 23.0 0.00 0.00 0.00 79 1005.5
20210624081123 78 153 0.0 23.0 0.00 0.00 0.00 79 1005.5
20210624080619 78 182 0.0 19.0 0.00 0.00 0.00 79 1005.3
20210624080114 78 186 0.0 18.0 0.00 0.00 0.00 79 1005.2
20210624075815 78 215 0.0 18.0 0.00 0.00 0.00 79 1005.2
20210624075614 78 195 0.0 18.0 0.00 0.00 0.00 79 1005.2
20210624075110 78 184 0.0 18.0 0.00 0.00 0.00 79 1005.2
20210624074816 78 200 0.0 16.0 0.00 0.00 0.00 79 1005.2
20210624074615 78 186 0.0 16.0 0.00 0.00 0.00 79 1005.3